| time (UTC) | temp C | wind direction | speed KPH | gust KPH | rain 1hr cm | rain 24hr cm | rain mn cm | humidity % | barometer mb |
| 20260905184003 | 20 | 0 | 0.0 | 0.0 | 0.00 | 0.00 | 0.00 | 60 | 1023.3 |
| 20260905183003 | 20 | 0 | 0.0 | 0.0 | 0.00 | 0.00 | 0.00 | 58 | 1023.2 |
| 20260905182004 | 20 | 0 | 0.0 | 3.2 | 0.00 | 0.00 | 0.00 | 56 | 1023.3 |
| 20260905181003 | 21 | 291 | 1.6 | 4.8 | 0.00 | 0.00 | 0.00 | 56 | 1023.4 |
| 20260905180003 | 21 | 291 | 1.6 | 4.8 | 0.00 | 0.00 | 0.00 | 54 | 1023.3 |
| 20260905174003 | 22 | 295 | 1.6 | 8.0 | 0.00 | 0.00 | 0.00 | 52 | 1023.2 |
| 20260905173003 | 22 | 297 | 1.6 | 8.0 | 0.00 | 0.00 | 0.00 | 51 | 1023.1 |
| 20260905172003 | 22 | 301 | 1.6 | 6.4 | 0.00 | 0.00 | 0.00 | 51 | 1023.2 |
| 20260905171003 | 22 | 299 | 3.2 | 8.0 | 0.00 | 0.00 | 0.00 | 51 | 1023.1 |
| 20260905170003 | 22 | 264 | 3.2 | 9.7 | 0.00 | 0.00 | 0.00 | 50 | 1023.1 |
| 20260905165004 | 22 | 319 | 4.8 | 12.9 | 0.00 | 0.00 | 0.00 | 52 | 1023.2 |
| 20260905164004 | 22 | 294 | 3.2 | 14.5 | 0.00 | 0.00 | 0.00 | 51 | 1023.2 |
| 20260905163003 | 22 | 305 | 3.2 | 11.3 | 0.00 | 0.00 | 0.00 | 52 | 1023.1 |
| 20260905162003 | 22 | 268 | 4.8 | 12.9 | 0.00 | 0.00 | 0.00 | 51 | 1023.1 |
| 20260905161003 | 22 | 278 | 4.8 | 11.3 | 0.00 | 0.00 | 0.00 | 52 | 1023.2 |
| 20260905160004 | 22 | 299 | 4.8 | 12.9 | 0.00 | 0.00 | 0.00 | 52 | 1023.2 |
| 20260905155003 | 22 | 325 | 4.8 | 14.5 | 0.00 | 0.00 | 0.00 | 52 | 1023.1 |
| 20260905154003 | 22 | 276 | 4.8 | 16.1 | 0.00 | 0.00 | 0.00 | 50 | 1023.2 |
| 20260905152003 | 22 | 264 | 4.8 | 16.1 | 0.00 | 0.00 | 0.00 | 52 | 1023.3 |
| 20260905151002 | 22 | 250 | 6.4 | 16.1 | 0.00 | 0.00 | 0.00 | 52 | 1023.3 |
| 20260905150003 | 22 | 281 | 6.4 | 17.7 | 0.00 | 0.00 | 0.00 | 54 | 1023.5 |
| 20260905145004 | 22 | 288 | 6.4 | 16.1 | 0.00 | 0.00 | 0.00 | 53 | 1023.4 |
| 20260905144004 | 21 | 283 | 6.4 | 19.3 | 0.00 | 0.00 | 0.00 | 55 | 1023.3 |
| 20260905142003 | 21 | 328 | 6.4 | 20.9 | 0.00 | 0.00 | 0.00 | 54 | 1023.2 |
| 20260905141003 | 22 | 279 | 6.4 | 16.1 | 0.00 | 0.00 | 0.00 | 55 | 1023.3 |
| 20260905135003 | 22 | 265 | 4.8 | 17.7 | 0.00 | 0.00 | 0.00 | 54 | 1023.3 |
| 20260905134003 | 21 | 273 | 6.4 | 12.9 | 0.00 | 0.00 | 0.00 | 56 | 1023.1 |
| 20260905133003 | 21 | 318 | 4.8 | 14.5 | 0.00 | 0.00 | 0.00 | 58 | 1023.2 |
| 20260905132003 | 21 | 324 | 4.8 | 14.5 | 0.00 | 0.00 | 0.00 | 59 | 1023.1 |
| 20260905130003 | 20 | 331 | 6.4 | 19.3 | 0.00 | 0.00 | 0.00 | 60 | 1023.1 |
| 20260905125004 | 20 | 340 | 4.8 | 14.5 | 0.00 | 0.00 | 0.00 | 59 | 1023.1 |
| 20260905124003 | 20 | 333 | 6.4 | 12.9 | 0.00 | 0.00 | 0.00 | 62 | 1023.0 |
| 20260905122003 | 19 | 323 | 6.4 | 12.9 | 0.00 | 0.00 | 0.00 | 63 | 1023.0 |
| 20260905121003 | 19 | 344 | 6.4 | 14.5 | 0.00 | 0.00 | 0.00 | 63 | 1023.0 |
| 20260905120003 | 19 | 329 | 9.7 | 17.7 | 0.00 | 0.00 | 0.00 | 62 | 1022.9 |
| 20260905114003 | 19 | 340 | 6.4 | 17.7 | 0.00 | 0.00 | 0.00 | 63 | 1023.0 |
| 20260905113004 | 19 | 337 | 4.8 | 16.1 | 0.00 | 0.00 | 0.00 | 63 | 1023.1 |
| 20260905112003 | 18 | 334 | 4.8 | 17.7 | 0.00 | 0.00 | 0.00 | 64 | 1023.2 |
| 20260905111003 | 18 | 337 | 8.0 | 16.1 | 0.00 | 0.00 | 0.00 | 65 | 1023.2 |
| 20260905110003 | 18 | 330 | 4.8 | 17.7 | 0.00 | 0.00 | 0.00 | 65 | 1023.1 |
| 20260905105003 | 18 | 288 | 4.8 | 14.5 | 0.00 | 0.00 | 0.00 | 66 | 1023.1 |
| 20260905104003 | 18 | 319 | 8.0 | 17.7 | 0.00 | 0.00 | 0.00 | 68 | 1023.0 |
| 20260905102003 | 18 | 307 | 4.8 | 16.1 | 0.00 | 0.00 | 0.00 | 67 | 1022.9 |
| 20260905101003 | 18 | 295 | 6.4 | 14.5 | 0.00 | 0.00 | 0.00 | 67 | 1022.9 |
| 20260905100003 | 18 | 304 | 4.8 | 19.3 | 0.00 | 0.00 | 0.00 | 68 | 1022.9 |
| 20260905095003 | 18 | 315 | 4.8 | 11.3 | 0.00 | 0.00 | 0.00 | 68 | 1022.7 |
| 20260905094004 | 17 | 337 | 4.8 | 14.5 | 0.00 | 0.00 | 0.00 | 69 | 1022.7 |
| 20260905093003 | 17 | 313 | 6.4 | 19.3 | 0.00 | 0.00 | 0.00 | 72 | 1022.8 |
| 20260905092003 | 17 | 315 | 4.8 | 16.1 | 0.00 | 0.00 | 0.00 | 72 | 1022.6 |
| 20260905090004 | 17 | 271 | 4.8 | 14.5 | 0.00 | 0.00 | 0.00 | 75 | 1022.5 |
| 20260905085003 | 16 | 322 | 4.8 | 14.5 | 0.00 | 0.00 | 0.00 | 77 | 1022.5 |
| 20260905084004 | 16 | 305 | 4.8 | 16.1 | 0.00 | 0.00 | 0.00 | 76 | 1022.5 |
| 20260905083003 | 16 | 297 | 3.2 | 16.1 | 0.00 | 0.00 | 0.00 | 78 | 1022.4 |
| 20260905082004 | 16 | 277 | 3.2 | 11.3 | 0.00 | 0.00 | 0.00 | 79 | 1022.4 |
| 20260905081003 | 16 | 307 | 3.2 | 12.9 | 0.00 | 0.00 | 0.00 | 81 | 1022.3 |
| 20260905080003 | 15 | 272 | 4.8 | 11.3 | 0.00 | 0.00 | 0.00 | 82 | 1022.1 |
| 20260905075003 | 15 | 280 | 4.8 | 12.9 | 0.00 | 0.00 | 0.00 | 84 | 1022.0 |
| 20260905074004 | 15 | 273 | 3.2 | 16.1 | 0.00 | 0.03 | 0.00 | 86 | 1021.8 |
| 20260905072003 | 13 | 265 | 4.8 | 14.5 | 0.00 | 0.18 | 0.00 | 91 | 1021.7 |
| 20260905071003 | 13 | 258 | 4.8 | 14.5 | 0.00 | 0.20 | 0.00 | 93 | 1021.7 |
| 20260905070003 | 12 | 266 | 3.2 | 11.3 | 0.00 | 0.20 | 0.00 | 94 | 1021.7 |
| 20260905064003 | 11 | 267 | 1.6 | 6.4 | 0.00 | 0.20 | 0.00 | 96 | 1021.3 |
| 20260905063004 | 11 | 267 | 1.6 | 6.4 | 0.00 | 0.20 | 0.00 | 95 | 1021.2 |
| 20260905062003 | 11 | 267 | 1.6 | 4.8 | 0.00 | 0.20 | 0.00 | 95 | 1021.0 |
| 20260905061004 | 10 | 267 | 1.6 | 4.8 | 0.00 | 0.20 | 0.00 | 95 | 1020.8 |
| 20260905060004 | 11 | 267 | 1.6 | 6.4 | 0.00 | 0.20 | 0.00 | 95 | 1020.9 |
| 20260905055004 | 10 | 268 | 0.0 | 6.4 | 0.00 | 0.20 | 0.00 | 95 | 1020.7 |
| 20260905054004 | 11 | 270 | 1.6 | 6.4 | 0.00 | 0.20 | 0.00 | 95 | 1020.5 |
| 20260905053004 | 10 | 270 | 1.6 | 6.4 | 0.00 | 0.20 | 0.00 | 94 | 1020.4 |
| 20260905051003 | 11 | 270 | 1.6 | 6.4 | 0.00 | 0.20 | 0.00 | 94 | 1020.1 |
| 20260905050003 | 11 | 270 | 1.6 | 6.4 | 0.00 | 0.20 | 0.00 | 94 | 1020.2 |
| 20260905045004 | 11 | 272 | 3.2 | 6.4 | 0.00 | 0.20 | 0.00 | 94 | 1020.2 |
| 20260905043004 | 11 | 267 | 1.6 | 6.4 | 0.00 | 0.20 | 0.00 | 94 | 1020.0 |
| 20260905041003 | 11 | 270 | 1.6 | 6.4 | 0.00 | 0.20 | 0.00 | 94 | 1020.0 |
| 20260905040003 | 11 | 260 | 1.6 | 6.4 | 0.00 | 0.20 | 0.00 | 94 | 1019.9 |
| 20260905035003 | 11 | 260 | 1.6 | 4.8 | 0.00 | 0.20 | 0.00 | 93 | 1019.8 |
| 20260905034005 | 11 | 260 | 1.6 | 6.4 | 0.00 | 0.20 | 0.00 | 93 | 1019.7 |
| 20260905032003 | 11 | 260 | 1.6 | 4.8 | 0.00 | 0.20 | 0.00 | 93 | 1019.7 |
| 20260905031003 | 11 | 260 | 1.6 | 4.8 | 0.00 | 0.20 | 0.00 | 92 | 1019.5 |
| 20260905030003 | 11 | 260 | 1.6 | 6.4 | 0.00 | 0.20 | 0.00 | 93 | 1019.3 |
| 20260905025003 | 11 | 260 | 1.6 | 4.8 | 0.00 | 0.20 | 0.00 | 92 | 1019.2 |
| 20260905024003 | 11 | 261 | 1.6 | 6.4 | 0.00 | 0.20 | 0.00 | 92 | 1019.1 |
| 20260905023003 | 11 | 265 | 1.6 | 6.4 | 0.00 | 0.20 | 0.00 | 92 | 1018.9 |
| 20260905021003 | 12 | 269 | 1.6 | 6.4 | 0.00 | 0.20 | 0.00 | 92 | 1018.8 |
| 20260905020004 | 12 | 268 | 1.6 | 9.7 | 0.00 | 0.20 | 0.00 | 91 | 1018.7 |
| 20260905014003 | 12 | 270 | 1.6 | 9.7 | 0.00 | 0.20 | 0.00 | 91 | 1018.8 |
| 20260905013003 | 12 | 269 | 1.6 | 6.4 | 0.00 | 0.20 | 0.00 | 91 | 1018.8 |
| 20260905012004 | 12 | 264 | 1.6 | 6.4 | 0.00 | 0.20 | 0.00 | 91 | 1018.7 |
| 20260905011003 | 12 | 261 | 1.6 | 9.7 | 0.00 | 0.20 | 0.00 | 91 | 1018.6 |
| 20260905005003 | 12 | 253 | 1.6 | 6.4 | 0.00 | 0.20 | 0.00 | 90 | 1018.6 |
| 20260905003003 | 12 | 265 | 1.6 | 9.7 | 0.00 | 0.20 | 0.00 | 90 | 1018.4 |
| 20260905002003 | 12 | 0 | 0.0 | 4.8 | 0.00 | 0.20 | 0.00 | 89 | 1018.4 |
| 20260905001003 | 12 | 261 | 0.0 | 4.8 | 0.00 | 0.20 | 0.00 | 89 | 1018.3 |
| 20260905000003 | 12 | 262 | 1.6 | 3.2 | 0.00 | 0.20 | 0.00 | 89 | 1018.2 |
| 20260904235003 | 12 | 0 | 0.0 | 11.3 | 0.00 | 0.20 | 0.00 | 88 | 1018.2 |
| 20260904232003 | 13 | 286 | 0.0 | 9.7 | 0.00 | 0.20 | 0.00 | 87 | 1018.3 |
| 20260904231003 | 13 | 305 | 0.0 | 4.8 | 0.00 | 0.20 | 0.00 | 87 | 1018.2 |
| 20260904230003 | 13 | 318 | 1.6 | 9.7 | 0.00 | 0.20 | 0.00 | 87 | 1018.2 |
| 20260904225003 | 13 | 273 | 1.6 | 6.4 | 0.00 | 0.20 | 0.20 | 87 | 1018.0 |
| 20260904224003 | 13 | 260 | 1.6 | 9.7 | 0.00 | 0.20 | 0.20 | 87 | 1017.8 |
| 20260904223003 | 13 | 260 | 1.6 | 8.0 | 0.00 | 0.20 | 0.20 | 86 | 1017.8 |
| 20260904222004 | 13 | 263 | 1.6 | 9.7 | 0.00 | 0.20 | 0.20 | 86 | 1017.9 |
| 20260904221003 | 13 | 270 | 1.6 | 6.4 | 0.00 | 0.20 | 0.20 | 86 | 1017.8 |
| 20260904220004 | 13 | 274 | 1.6 | 9.7 | 0.00 | 0.20 | 0.20 | 86 | 1017.7 |
| 20260904215003 | 13 | 272 | 1.6 | 9.7 | 0.00 | 0.20 | 0.20 | 86 | 1017.7 |
| 20260904214003 | 14 | 272 | 1.6 | 9.7 | 0.00 | 0.20 | 0.20 | 86 | 1017.7 |
| 20260904213003 | 14 | 267 | 1.6 | 6.4 | 0.00 | 0.20 | 0.20 | 85 | 1017.6 |
| 20260904212003 | 14 | 267 | 1.6 | 4.8 | 0.00 | 0.20 | 0.20 | 84 | 1017.5 |
| 20260904211003 | 14 | 269 | 3.2 | 11.3 | 0.00 | 0.20 | 0.20 | 84 | 1017.4 |
| 20260904210004 | 15 | 270 | 1.6 | 11.3 | 0.00 | 0.20 | 0.20 | 83 | 1017.3 |
| 20260904205004 | 15 | 285 | 1.6 | 9.7 | 0.00 | 0.20 | 0.20 | 83 | 1017.3 |
| 20260904204003 | 15 | 311 | 0.0 | 6.4 | 0.00 | 0.20 | 0.20 | 82 | 1017.3 |
| 20260904203003 | 15 | 290 | 1.6 | 6.4 | 0.00 | 0.20 | 0.20 | 82 | 1017.3 |
| 20260904202004 | 15 | 271 | 3.2 | 6.4 | 0.00 | 0.20 | 0.20 | 81 | 1017.3 |
| 20260904201003 | 15 | 265 | 3.2 | 14.5 | 0.00 | 0.20 | 0.20 | 81 | 1017.2 |
| 20260904200004 | 15 | 269 | 3.2 | 11.3 | 0.00 | 0.20 | 0.20 | 80 | 1017.1 |
| 20260904194003 | 16 | 271 | 3.2 | 12.9 | 0.00 | 0.20 | 0.20 | 79 | 1017.0 |
| 20260904193003 | 16 | 271 | 3.2 | 11.3 | 0.00 | 0.20 | 0.20 | 78 | 1016.8 |
| 20260904192003 | 16 | 270 | 1.6 | 11.3 | 0.00 | 0.20 | 0.20 | 77 | 1016.5 |
| 20260904191003 | 16 | 256 | 1.6 | 11.3 | 0.00 | 0.20 | 0.20 | 76 | 1016.3 |
| 20260904190003 | 17 | 265 | 4.8 | 14.5 | 0.00 | 0.20 | 0.20 | 75 | 1016.2 |
| 20260904185003 | 17 | 275 | 3.2 | 14.5 | 0.00 | 0.20 | 0.20 | 74 | 1015.9 |